User: anonymous   Login
Location: Unspecified
(0.0000°N, 0.0000°E)
Time: 17:05:19
(UTC+00:00)
Language:

ESSA 6 - Orbit

View from above orbital plane
View from above orbital plane
View from above satellite
View from above satellite

Ground track
Ground track

The orbit data is extracted from the following two-line orbital elements,

1  3035U 67114A   19016.02404472 -.00000048  00000-0  10456-5 0  9994
2  3035 102.2540  26.4852 0048601 231.3766 190.1451 12.54217985343398
Epoch (UTC): 16 January 2019 00:34:37
Eccentricity: 0.0048601
inclination: 102.2540°
perigee height: 1409 km
apogee height: 1485 km
right ascension of ascending node: 26.4852°
argument of perigee: 231.3766°
revolutions per day: 12.54217985
mean anomaly at epoch: 190.1451°
orbit number at epoch: 34339

The dashed part of the orbit path shows where the satellite is in the earth's shadow,  

DLR